Temp
54 54 55 55 55 55 55 55 55 56 56 57 57 58 58 58 56 60 74 76 69 67 73 75 75 70 72 72 66 72 71 72 72 65 66 68 67 65 59 66 63 61 60 59 61 57 52 72 72 61 65 67 68 65
54 54 54 54 55 55 55 55 55 55 56 56 57 57 58 58 57 56 67 76 76 65 70 76 76 78 77 76 72 73 70 68 73 69 71 72 67 65 65 56 62 59 67 62 61 59 71 74 69 70 71 67 68 69
54 54 54 54 54 54 55 54 55 55 55 56 56 57 57 57 57 57 68 73 70 66 69 73 72 80 82 80 82 67 73 74 71 74 69 71 62 72 61 63 63 68 72 69 64 70 69 71 71 73 73 73 74 74
54 54 54 54 54 54 54 54 54 54 55 56 56 57 57 57 56 56 66 71 69 67 61 72 81 74 81 82 78 78 75 76 73 74 70 70 68 78 69 68 70 72 72 66 67 71 69 71 71 70 65 77 77 79
53 53 53 53 54 54 54 54 54 54 55 55 56 56 57 56 54 58 66 62 71 64 61 67 77 81 82 78 76 76 74 71 71 69 68 67 75 74 75 75 71 77 66 64 64 71 67 66 68 66 59 71 76 69
53 53 53 53 53 54 54 54 54 54 55 55 56 56 56 56 54 54 55 70 73 66 57 62 78 74 75 74 72 72 73 71 71 69 70 74 78 72 66 67 71 79 76 81 73 77 74 69 63 65 67 64 77 78
53 53 53 53 53 54 54 54 54 54 54 54 54 55 55 53 56 59 60 61 62 66 56 63 69 74 75 73 73 73 73 72 72 70 69 72 74 73 69 64 74 79 81 80 79 77 73 73 66 76 63 78 76 79
53 53 53 53 53 54 54 54 54 53 54 54 54 54 53 53 55 61 69 57 63 64 65 60 65 69 75 70 67 74 69 71 71 70 73 71 75 73 64 72 76 78 79 78 78 79 78 79 78 78 78 80 78 77
52 53 53 53 53 54 54 54 53 53 54 54 53 53 53 52 55 62 58 57 69 64 53 65 62 63 76 72 74 70 73 64 74 68 70 73 70 65 71 72 74 77 76 77 80 79 78 78 77 78 78 79 77 76
52 52 53 53 53 53 53 53 53 53 53 53 55 50 49 61 56 58 61 59 56 61 63 60 71 65 73 70 67 69 70 67 63 70 77 70 68 73 76 75 75 76 78 80 76 73 74 76 77 77 77 81 79 77
52 52 53 53 53 53 53 53 53 52 53 53 49 49 54 57 63 57 55 53 56 56 64 65 67 65 74 65 66 73 58 69 61 66 68 65 59 62 71 74 77 79 80 80 79 79 80 81 81 78 79 79 77 76
52 52 53 53 53 53 52 53 53 53 53 55 54 58 61 61 59 53 52 59 59 58 64 62 66 68 73 73 68 71 65 64 56 51 61 61 51 60 67 74 76 79 80 79 75 80 81 81 82 80 80 80 80 79
52 52 52 53 53 53 53 53 53 53 55 54 53 50 53 55 41 48 47 56 57 63 65 66 64 69 69 70 67 67 58 59 69 63 57 55 59 63 66 67 75 79 79 79 80 81 81 80 82 80 75 77 78 78
52 52 52 52 53 53 53 53 53 53 53 48 47 41 51 49 56 60 62 63 67 66 68 69 65 66 71 65 68 58 66 59 48 54 46 58 59 62 68 71 70 71 75 77 77 78 78 77 77 77 77 77 77 75
52 52 52 52 52 53 53 52 52 54 51 48 51 45 55 59 66 70 71 69 69 72 70 67 68 69 66 63 65 63 57 57 56 51 58 59 62 65 67 65 67 66 69 71 74 75 76 76 76 74 75 77 76 77
52 51 51 52 52 52 51 52 53 54 50 51 54 51 61 63 63 67 66 65 72 71 73 71 62 63 62 64 58 58 57 51 50 65 69 66 63 65 65 67 67 66 66 65 69 74 75 75 74 75 77 78 78 76
52 52 52 52 52 51 52 51 52 49 49 53 54 63 65 63 59 62 66 66 68 69 63 67 58 58 66 62 57 55 56 56 66 68 71 65 64 64 66 67 67 65 63 62 68 73 74 76 76 75 70 67 73 75
54 53 53 52 53 51 51 51 50 51 50 58 54 60 61 64 63 65 70 72 69 60 56 61 68 61 60 56 56 63 67 67 71 70 69 65 65 65 67 66 66 63 60 59 59 71 74 72 73 65 72 69 73 69
54 54 53 54 55 50 46 49 54 49 54 66 63 67 69 67 69 71 72 72 74 75 68 70 62 58 61 67 66 69 71 71 69 70 68 65 65 65 62 67 66 66 64 62 62 66 74 73 72 73 76 78 76 78
52 53 53 53 54 54 54 57 63 58 57 64 68 64 65 63 68 72 72 71 72 69 66 64 62 66 66 69 70 70 71 71 70 65 61 65 67 63 64 63 62 63 63 65 64 58 66 65 65 68 77 77 75 74
51 51 54 55 59 61 60 61 62 62 65 63 67 65 60 67 67 64 64 76 67 66 65 69 68 70 69 69 72 71 69 69 64 63 61 63 65 63 60 59 60 60 60 60 58 63 65 69 75 78 78 77 75 78
50 53 55 58 59 60 63 65 63 65 62 63 63 67 62 61 62 65 69 67 65 69 70 70 70 70 70 67 69 68 68 68 67 65 54 58 56 56 56 62 67 67 62 70 73 71 74 77 77 77 77 75 71 68
54 58 62 61 55 52 51 65 58 61 55 58 64 60 63 64 67 71 64 70 65 72 70 70 68 68 67 69 70 70 71 68 67 64 63 64 63 60 63 69 72 72 70 69 66 74 72 58 71 71 73 73 72 69
55 60 54 56 57 49 60 57 65 62 61 59 57 54 58 57 67 63 59 62 65 70 68 65 69 69 70 66 69 69 72 72 71 67 62 60 62 65 71 74 75 74 72 71 69 66 73 62 57 70 69 67 69 67
46 45 52 36 60 55 54 55 56 57 53 56 55 55 57 67 57 56 56 56 62 62 62 62 64 66 62 67 59 69 69 68 67 61 60 60 62 58 65 67 62 67 74 72 69 69 69 68 69 69 69 68 67 69
37 50 43 55 55 55 56 51 54 55 57 55 57 61 61 52 45 41 45 49 51 51 53 59 63 63 61 63 63 65 68 69 71 69 69 72 72 69 67 66 68 69 75 75 72 71 71 70 68 67 68 64 53 67
41 46 55 64 63 61 58 60 61 58 53 49 51 52 47 37 37 44 52 53 53 60 63 62 61 61 62 63 69 74 76 72 71 69 76 76 76 75 74 70 67 69 74 73 72 71 69 69 69 67 65 65 68 68
48 50 49 58 58 61 56 56 53 48 50 57 55 44 40 41 45 51 56 61 63 63 63 67 66 65 64 68 74 71 72 67 72 70 72 76 78 76 75 76 74 52 71 71 70 71 68 68 68 68 68 68 68 69
50 54 56 50 57 56 51 51 52 54 56 51 44 43 45 49 52 55 54 57 58 63 63 60 68 72 68 66 74 75 68 72 70 64 65 67 69 71 74 74 74 73 73 72 45 57 64 65 66 66 66 67 67 66
49 55 51 52 52 49 51 52 49 51 51 51 51 50 53 56 62 67 67 62 62 65 65 68 69 61 60 71 70 69 74 75 72 70 67 67 68 72 72 71 71 72 71 70 70 70 54 65 59 67 64 64 63 62
54 55 50 52 47 47 48 50 53 54 51 51 52 50 51 56 64 68 69 68 67 70 69 70 71 73 72 71 69 69 69 73 72 70 69 73 72 70 70 70 71 71 69 69 67 65 63 64 63 62 61 59 58 57
47 47 48 45 44 47 49 50 51 53 55 56 59 60 61 61 60 64 70 71 70 70 60 69 70 69 71 73 72 71 56 68 65 65 63 66 66 65 68 69 70 68 67 67 66 64 61 60 60 59 59 57 57 57
50 53 52 49 46 48 53 58 58 56 60 61 60 61 64 62 58 66 74 74 71 70 71 71 73 73 69 70 69 69 62 63 51 39 41 39 37 45 62 64 65 66 65 64 64 63 59 58 58 57 57 57 56 56
MSLP
1018.49 1018.45 1018.42 1018.40 1018.32 1018.27 1018.21 1018.07 1017.78 1017.63 1017.58 1017.86 1018.21 1018.43 1018.47 1018.48 1018.67 1018.47 1015.77 1016.14 1015.78 1013.82 1011.69 1011.30 1011.16 1010.72 1009.93 1009.67 1009.00 1008.43 1008.34 1007.67 1007.15 1006.23 1005.24 1004.09 1003.18 1004.30 1004.83 1004.17 1004.34 1004.11 1003.97 1003.36 1003.24 1002.75 1002.75 1003.73 1003.11 1003.69 1004.69 1005.31 1005.39 1005.47
1017.74 1017.77 1017.77 1017.80 1017.75 1017.71 1017.70 1017.58 1017.45 1017.21 1017.16 1017.54 1017.89 1018.14 1018.23 1018.33 1018.40 1018.79 1016.54 1016.03 1015.96 1015.36 1012.39 1012.21 1011.82 1011.38 1010.86 1010.53 1010.11 1009.44 1008.88 1008.71 1007.52 1006.58 1005.34 1004.35 1004.01 1004.46 1004.39 1004.51 1005.31 1004.52 1004.35 1004.35 1004.54 1004.45 1004.17 1004.37 1004.78 1005.15 1005.23 1005.25 1004.71 1004.98
1017.06 1017.15 1017.10 1017.12 1017.20 1017.19 1017.08 1017.15 1016.96 1016.87 1016.77 1017.05 1017.58 1017.83 1018.07 1018.15 1018.33 1018.58 1016.85 1016.03 1015.97 1014.64 1012.48 1010.84 1010.12 1009.89 1010.53 1010.73 1010.64 1010.27 1009.43 1008.98 1008.97 1008.90 1007.60 1005.41 1004.90 1004.36 1004.03 1004.38 1004.53 1004.76 1004.62 1004.18 1004.45 1003.98 1004.43 1004.86 1005.44 1005.58 1005.68 1004.93 1004.69 1004.46
1016.34 1016.43 1016.46 1016.49 1016.57 1016.54 1016.65 1016.67 1016.58 1016.44 1016.38 1016.77 1017.00 1017.58 1017.77 1018.03 1018.29 1018.60 1017.32 1016.22 1015.97 1014.84 1012.59 1009.00 1009.50 1010.00 1010.32 1010.11 1010.40 1010.36 1010.11 1010.12 1010.01 1009.26 1007.74 1006.23 1004.79 1004.38 1003.96 1004.37 1003.82 1003.98 1004.32 1004.18 1003.87 1004.24 1004.63 1005.13 1005.75 1006.07 1006.46 1005.02 1004.48 1004.39
1015.52 1015.69 1015.79 1015.90 1015.94 1016.01 1016.18 1016.18 1016.13 1016.11 1016.01 1016.43 1016.81 1017.27 1017.73 1017.93 1018.29 1018.40 1017.57 1017.46 1016.06 1015.94 1012.88 1010.36 1009.47 1009.21 1009.26 1009.61 1009.98 1010.22 1010.15 1010.06 1009.35 1008.32 1007.46 1006.35 1005.38 1004.66 1004.29 1003.78 1003.11 1003.58 1004.56 1003.95 1003.75 1004.55 1005.21 1005.99 1006.44 1007.25 1006.38 1005.12 1004.54 1005.20
1014.72 1014.97 1015.11 1015.28 1015.34 1015.49 1015.64 1015.69 1015.64 1015.73 1015.81 1016.18 1016.72 1017.07 1017.49 1017.80 1018.34 1018.69 1017.78 1015.77 1016.03 1016.73 1015.25 1010.76 1008.58 1009.00 1009.46 1009.83 1009.89 1009.86 1009.82 1009.86 1009.49 1008.27 1007.23 1006.27 1005.80 1005.76 1004.72 1003.31 1003.55 1003.06 1003.84 1003.21 1003.92 1004.41 1005.17 1006.46 1006.32 1006.17 1006.11 1005.79 1004.13 1004.39
1013.92 1014.20 1014.43 1014.58 1014.73 1014.93 1015.10 1015.24 1015.26 1015.36 1015.67 1016.10 1016.61 1016.98 1017.44 1017.81 1017.98 1017.34 1016.60 1016.61 1016.30 1016.51 1015.26 1011.00 1008.10 1008.56 1009.01 1009.34 1009.30 1009.33 1009.60 1009.07 1008.73 1007.94 1007.21 1006.29 1005.55 1005.65 1004.82 1003.86 1003.48 1003.12 1002.99 1003.13 1004.04 1004.52 1004.60 1005.43 1005.78 1004.93 1005.18 1004.17 1004.29 1004.75
1013.13 1013.45 1013.73 1013.97 1014.20 1014.41 1014.62 1014.82 1014.94 1015.16 1015.68 1016.09 1016.52 1016.85 1017.46 1017.86 1018.01 1016.94 1016.22 1016.93 1016.48 1015.49 1013.95 1011.17 1008.37 1007.92 1008.76 1007.97 1008.18 1008.52 1008.45 1008.58 1008.04 1007.37 1006.30 1005.45 1004.90 1005.01 1004.30 1003.65 1003.41 1003.20 1003.22 1003.35 1003.73 1004.22 1004.05 1004.63 1004.51 1004.13 1003.73 1003.96 1004.30 1004.95
1012.40 1012.75 1013.10 1013.41 1013.69 1013.91 1014.18 1014.43 1014.62 1015.04 1015.59 1016.07 1016.56 1017.22 1017.61 1017.72 1017.20 1016.40 1016.79 1017.04 1016.34 1015.68 1013.63 1010.25 1007.88 1006.19 1007.61 1007.07 1006.94 1008.03 1007.53 1007.11 1006.54 1006.02 1005.43 1004.88 1004.13 1003.68 1003.47 1003.69 1003.60 1003.28 1003.41 1003.03 1003.36 1003.79 1004.23 1004.04 1003.72 1003.57 1004.09 1004.25 1004.58 1005.13
1011.73 1012.10 1012.55 1012.89 1013.20 1013.47 1013.82 1014.10 1014.52 1015.06 1015.58 1016.23 1016.64 1016.85 1016.53 1016.00 1016.77 1016.79 1016.93 1016.17 1016.07 1014.27 1012.92 1010.45 1008.27 1007.04 1006.89 1006.42 1006.64 1006.50 1006.57 1005.66 1004.49 1004.14 1003.94 1003.70 1003.68 1004.24 1004.04 1004.51 1004.39 1004.21 1003.97 1003.42 1003.15 1003.66 1003.77 1003.53 1003.59 1003.85 1004.26 1004.37 1004.80 1005.51
1011.10 1011.52 1011.98 1012.38 1012.73 1013.08 1013.48 1013.89 1014.53 1015.15 1015.87 1015.93 1016.04 1015.96 1016.21 1016.21 1015.63 1015.45 1014.69 1014.06 1013.12 1011.80 1010.25 1009.20 1008.32 1007.13 1007.01 1006.30 1005.67 1005.45 1006.90 1004.93 1004.26 1004.02 1003.60 1003.43 1004.68 1005.74 1005.49 1004.62 1004.20 1003.81 1003.58 1003.54 1003.14 1003.07 1002.83 1002.97 1003.04 1003.56 1004.11 1004.63 1005.45 1005.70
1010.51 1010.99 1011.47 1011.92 1012.29 1012.73 1013.21 1013.82 1014.42 1014.84 1015.07 1014.70 1014.75 1015.30 1015.65 1014.68 1013.98 1013.45 1012.17 1011.03 1009.99 1008.88 1008.29 1008.03 1007.52 1007.62 1006.77 1007.19 1006.21 1005.38 1005.45 1005.55 1004.98 1006.45 1005.55 1004.36 1007.15 1007.45 1006.68 1004.82 1004.28 1003.44 1003.52 1003.65 1003.66 1002.95 1003.25 1003.47 1003.37 1003.82 1004.27 1004.61 1005.15 1005.56
1010.04 1010.53 1011.07 1011.47 1011.90 1012.37 1013.10 1013.64 1014.15 1014.38 1014.28 1014.85 1014.93 1014.72 1013.75 1013.08 1012.34 1010.83 1009.52 1008.34 1007.77 1007.76 1007.53 1007.46 1007.04 1006.83 1007.26 1007.11 1006.30 1005.63 1005.48 1005.01 1005.26 1004.76 1005.49 1007.22 1008.04 1007.75 1006.95 1006.30 1005.07 1004.21 1003.87 1003.75 1003.66 1003.64 1003.74 1004.01 1004.14 1004.37 1004.94 1005.43 1005.76 1005.87
1009.75 1010.29 1010.78 1011.21 1011.65 1012.28 1013.04 1013.80 1014.43 1014.43 1014.46 1014.44 1013.84 1013.00 1011.60 1010.41 1008.93 1007.50 1006.72 1006.45 1006.54 1006.65 1006.60 1006.40 1006.32 1006.17 1006.05 1006.29 1005.60 1005.33 1004.87 1005.52 1006.65 1005.25 1007.33 1007.94 1008.49 1008.17 1007.57 1007.10 1006.96 1006.28 1005.38 1004.98 1004.96 1004.82 1004.86 1005.20 1005.56 1005.85 1005.91 1006.23 1006.26 1006.34
1009.61 1010.17 1010.70 1011.29 1011.91 1012.52 1013.43 1014.17 1014.31 1014.46 1014.34 1013.72 1012.59 1010.99 1009.38 1008.67 1007.17 1006.56 1006.48 1006.75 1007.02 1006.75 1006.42 1006.50 1006.22 1005.74 1005.76 1005.53 1005.43 1005.43 1005.57 1004.75 1005.50 1006.75 1007.27 1008.06 1008.38 1008.37 1008.04 1008.25 1007.80 1007.74 1007.29 1007.00 1006.30 1005.92 1005.89 1006.15 1006.30 1006.42 1006.48 1006.47 1006.56 1006.43
1009.61 1010.41 1010.82 1011.53 1012.24 1012.89 1013.61 1014.25 1014.56 1014.27 1014.09 1012.92 1011.65 1010.21 1008.38 1007.22 1006.64 1006.73 1006.88 1006.81 1006.90 1006.59 1006.54 1006.18 1006.10 1005.20 1005.11 1005.09 1005.51 1004.99 1004.99 1006.21 1007.27 1006.42 1006.79 1008.03 1008.61 1008.62 1008.68 1008.50 1008.43 1008.52 1008.48 1008.07 1007.31 1006.72 1006.57 1006.63 1006.73 1006.71 1006.45 1006.31 1006.31 1006.40
1009.70 1010.00 1011.10 1011.86 1012.74 1013.49 1014.06 1014.20 1014.05 1014.09 1013.10 1011.26 1009.78 1008.89 1007.96 1007.50 1007.13 1006.88 1006.60 1006.72 1007.30 1006.50 1006.12 1005.53 1005.24 1005.16 1005.36 1004.68 1005.38 1006.67 1006.58 1007.40 1007.29 1007.39 1007.21 1008.54 1008.96 1008.98 1008.87 1008.76 1008.83 1009.07 1008.97 1008.59 1007.86 1007.06 1006.80 1006.91 1006.79 1006.62 1006.56 1006.74 1006.56 1006.47
1009.82 1010.82 1011.61 1012.43 1013.16 1013.88 1014.08 1014.17 1014.12 1013.11 1011.62 1009.95 1009.10 1008.29 1008.45 1007.98 1007.38 1007.13 1006.96 1006.87 1006.88 1006.54 1007.69 1006.59 1005.59 1005.35 1005.08 1005.14 1005.92 1006.18 1006.31 1006.70 1006.93 1007.52 1008.05 1008.89 1009.14 1009.10 1008.95 1008.89 1009.01 1009.31 1009.21 1009.15 1008.75 1007.20 1007.05 1006.83 1006.74 1006.92 1006.49 1006.48 1006.36 1006.38
1010.44 1011.39 1012.22 1012.66 1012.75 1013.24 1013.87 1014.03 1013.33 1011.68 1010.29 1008.69 1008.57 1008.18 1007.96 1007.80 1007.93 1007.64 1007.15 1007.02 1006.75 1006.21 1006.28 1005.69 1005.98 1006.41 1005.94 1005.78 1006.00 1006.13 1006.54 1006.82 1007.18 1007.68 1008.43 1009.27 1009.29 1009.16 1009.24 1009.05 1009.20 1009.22 1009.28 1009.43 1008.72 1007.66 1006.94 1006.97 1006.90 1006.59 1006.07 1005.91 1005.58 1005.55
1011.56 1012.23 1012.72 1013.12 1013.13 1012.66 1012.30 1011.94 1011.81 1010.36 1009.10 1008.59 1008.35 1008.14 1008.07 1008.30 1007.96 1007.29 1007.03 1006.87 1006.51 1006.33 1006.08 1006.11 1006.67 1006.45 1006.97 1007.10 1007.49 1007.53 1007.64 1007.79 1007.88 1008.30 1009.06 1009.14 1009.35 1009.53 1009.36 1009.25 1009.31 1009.24 1009.16 1008.80 1008.40 1008.00 1007.17 1007.05 1007.04 1006.67 1006.08 1006.02 1005.92 1005.74
1012.89 1013.38 1013.43 1013.34 1012.78 1011.61 1010.93 1010.42 1009.88 1009.36 1009.03 1008.33 1008.35 1008.30 1008.59 1008.00 1007.36 1007.48 1007.40 1006.97 1006.82 1006.63 1006.57 1006.61 1007.06 1007.42 1008.14 1008.60 1008.35 1008.47 1008.61 1008.86 1009.07 1009.27 1009.46 1009.50 1009.71 1009.78 1009.75 1009.54 1009.28 1008.92 1008.82 1008.74 1008.38 1007.41 1007.06 1006.73 1006.33 1005.99 1005.80 1005.75 1005.99 1005.81
1013.25 1013.57 1013.51 1013.06 1011.87 1011.39 1010.62 1010.61 1009.61 1009.65 1008.97 1008.46 1008.59 1008.09 1007.71 1007.66 1007.47 1007.39 1007.55 1007.19 1007.06 1007.18 1007.23 1007.38 1007.59 1008.15 1008.27 1008.62 1008.84 1009.15 1009.16 1009.19 1009.32 1009.50 1010.00 1010.15 1010.12 1009.84 1009.59 1009.11 1008.76 1008.30 1008.13 1007.55 1007.23 1007.12 1006.83 1006.65 1006.71 1006.57 1006.29 1006.25 1006.36 1006.59
1013.27 1013.00 1012.13 1011.74 1011.47 1011.36 1011.14 1010.36 1009.56 1009.21 1008.72 1008.44 1008.42 1008.09 1007.96 1007.87 1007.77 1008.13 1007.70 1007.20 1007.88 1008.09 1008.28 1008.46 1009.02 1009.36 1009.22 1009.14 1009.17 1009.09 1009.10 1009.19 1009.18 1009.69 1009.96 1010.15 1010.12 1010.02 1009.57 1008.76 1008.05 1007.76 1007.60 1007.81 1007.72 1007.12 1007.31 1007.59 1006.99 1007.16 1006.83 1006.67 1006.49 1006.55
1012.27 1011.79 1011.44 1010.99 1010.84 1010.68 1010.27 1009.74 1009.39 1008.99 1008.85 1008.42 1008.28 1008.16 1008.16 1008.62 1008.52 1008.38 1008.09 1008.17 1008.28 1008.38 1009.05 1009.53 1009.13 1008.71 1008.55 1009.15 1008.76 1008.43 1008.75 1009.13 1009.29 1009.83 1010.28 1010.17 1009.88 1009.53 1008.70 1008.08 1007.57 1007.57 1007.76 1007.80 1007.85 1007.87 1007.33 1007.79 1007.69 1007.21 1007.09 1007.06 1006.86 1006.79
1012.36 1012.50 1011.64 1011.46 1010.46 1009.89 1009.45 1009.21 1009.14 1008.88 1008.72 1008.64 1008.54 1008.65 1008.89 1009.04 1008.96 1009.00 1009.14 1009.86 1010.03 1010.29 1010.44 1010.35 1009.91 1009.47 1009.15 1008.96 1009.45 1009.23 1009.56 1009.48 1009.59 1010.00 1009.62 1009.65 1009.40 1009.33 1008.79 1008.76 1009.09 1008.64 1008.09 1007.92 1008.09 1008.02 1007.83 1007.65 1007.56 1007.43 1007.14 1007.09 1007.18 1006.66
1012.63 1012.12 1011.85 1010.44 1010.08 1009.37 1009.16 1009.02 1008.89 1008.80 1008.88 1009.11 1009.22 1009.81 1009.87 1010.98 1011.55 1012.04 1012.27 1012.05 1011.68 1011.50 1011.17 1010.66 1010.05 1009.73 1009.89 1009.89 1009.82 1009.75 1009.25 1009.18 1009.40 1009.41 1009.01 1008.84 1008.81 1008.68 1008.76 1008.83 1008.71 1008.78 1008.84 1008.58 1008.47 1008.16 1007.82 1007.55 1007.62 1007.70 1007.57 1007.61 1007.93 1007.47
1012.76 1012.18 1011.49 1011.23 1010.46 1009.81 1009.31 1009.18 1009.25 1009.46 1009.87 1010.70 1011.06 1011.67 1012.58 1012.95 1013.13 1013.10 1012.69 1012.31 1011.98 1011.57 1011.16 1010.99 1010.80 1010.62 1010.61 1010.45 1009.80 1009.51 1009.49 1009.48 1009.70 1009.58 1009.11 1009.17 1009.29 1009.37 1009.25 1009.29 1009.64 1010.16 1009.43 1009.25 1009.19 1008.88 1008.74 1008.43 1008.12 1008.08 1008.08 1008.15 1007.77 1007.65
1013.29 1012.64 1011.51 1010.77 1010.33 1009.93 1009.72 1009.95 1010.75 1011.66 1012.14 1012.13 1012.61 1013.59 1014.09 1014.01 1013.70 1013.35 1012.60 1012.08 1011.59 1011.55 1011.47 1011.18 1011.31 1011.30 1011.13 1010.73 1010.13 1010.23 1009.93 1010.03 1009.73 1009.63 1009.60 1009.58 1009.51 1009.68 1009.95 1009.82 1010.02 1010.33 1009.92 1010.14 1010.08 1009.64 1009.93 1009.57 1009.23 1008.89 1008.40 1008.13 1007.96 1008.03
1013.04 1012.71 1012.02 1011.73 1011.00 1011.24 1011.93 1012.10 1012.50 1013.26 1013.85 1014.15 1014.48 1014.75 1014.71 1014.58 1014.16 1012.96 1012.99 1012.43 1011.92 1011.61 1011.47 1011.47 1011.06 1011.01 1011.32 1011.10 1010.72 1010.50 1010.48 1010.03 1009.65 1009.88 1009.57 1009.45 1009.52 1010.00 1010.33 1010.41 1010.29 1010.21 1010.16 1010.08 1010.94 1010.66 1010.62 1010.30 1010.14 1009.92 1009.46 1008.99 1009.01 1009.13
1013.57 1013.35 1012.71 1012.27 1012.16 1012.81 1013.73 1014.05 1014.41 1014.63 1014.82 1014.91 1015.05 1015.05 1014.70 1014.29 1013.64 1012.89 1011.96 1012.15 1012.06 1011.81 1011.79 1011.66 1011.56 1011.96 1011.53 1010.93 1010.87 1010.88 1010.74 1010.93 1011.11 1010.97 1010.61 1010.55 1010.73 1011.06 1011.11 1011.03 1010.97 1010.83 1010.83 1010.69 1010.43 1010.37 1010.72 1010.23 1010.22 1009.88 1010.00 1009.94 1010.08 1010.10
1013.88 1013.79 1013.56 1013.29 1013.99 1014.85 1015.18 1015.24 1015.05 1014.89 1014.97 1014.91 1014.93 1014.59 1014.15 1013.80 1013.24 1012.83 1012.38 1012.31 1012.12 1011.83 1011.66 1011.54 1011.43 1011.46 1011.39 1011.44 1011.55 1011.44 1011.20 1011.67 1012.16 1012.37 1012.53 1011.75 1011.83 1012.12 1012.04 1011.79 1011.58 1011.50 1011.43 1011.23 1011.10 1011.29 1011.55 1011.07 1011.05 1011.00 1010.96 1011.12 1011.09 1011.00
1014.29 1013.89 1013.58 1013.88 1014.90 1015.52 1015.44 1015.09 1014.78 1014.60 1014.54 1014.15 1013.64 1013.47 1013.21 1012.72 1012.94 1013.45 1013.40 1012.71 1012.25 1012.17 1012.80 1012.20 1012.18 1012.47 1012.75 1012.41 1012.47 1012.68 1013.52 1013.56 1014.13 1014.12 1014.22 1013.85 1013.80 1013.83 1013.27 1012.72 1012.41 1012.33 1012.10 1011.82 1011.80 1011.99 1012.34 1012.11 1012.01 1012.00 1011.85 1011.83 1011.76 1011.62
1013.79 1013.47 1013.67 1014.01 1014.57 1014.66 1014.52 1013.92 1013.71 1013.77 1013.47 1012.95 1012.87 1012.72 1012.61 1012.86 1013.18 1013.38 1013.44 1013.52 1013.47 1013.23 1012.92 1012.90 1012.86 1012.93 1013.50 1013.44 1013.44 1013.32 1013.97 1014.85 1015.41 1015.58 1015.69 1015.70 1015.66 1015.33 1014.49 1014.17 1013.72 1013.07 1012.69 1012.56 1012.57 1012.66 1012.86 1012.85 1012.74 1012.68 1012.55 1012.42 1012.27 1012.09
Wind_Speed
15 15 14 15 14 12 14 13 12 11 12 12 12 12 10 9 9 8 2 2 7 9 13 11 12 12 9 7 8 5 9 11 8 9 9 11 7 8 4 3 8 7 7 3 7 11 6 17 11 6 6 9 7 7
15 15 14 14 14 13 11 12 12 10 13 12 11 11 9 9 10 10 6 3 4 7 12 16 14 15 14 14 11 6 9 6 6 7 6 5 5 5 6 6 11 5 5 7 5 5 8 8 5 6 7 4 4 3
14 14 14 13 12 14 11 12 12 11 13 13 13 12 11 9 10 14 6 2 6 9 12 15 13 15 16 16 14 10 8 8 5 5 7 6 4 9 4 6 6 9 4 4 9 4 7 3 2 4 2 5 3 3
15 14 14 13 12 13 12 10 11 11 12 13 12 12 8 7 12 14 6 4 5 6 7 2 4 4 6 7 10 12 16 3 7 8 8 8 9 1 9 4 9 5 8 6 3 5 7 5 3 6 15 5 3 7
16 15 14 13 13 13 13 10 10 12 13 13 12 11 10 9 13 7 4 5 6 7 7 9 14 13 3 7 9 12 11 11 7 7 7 9 9 9 7 12 7 1 3 6 7 7 4 5 2 7 8 11 6 9
16 16 14 14 13 13 14 10 10 11 13 11 11 10 10 10 13 3 6 10 8 3 5 6 3 6 5 5 9 11 9 8 8 8 6 8 13 6 8 11 9 14 21 7 6 4 8 8 5 8 10 4 7 12
17 15 15 14 13 12 12 10 9 9 12 11 9 9 9 16 7 5 5 5 2 5 6 6 4 8 4 4 7 7 8 6 6 8 9 9 10 5 9 11 13 12 11 5 2 3 6 16 9 13 1 2 8 9
17 16 15 14 12 12 10 10 9 13 11 10 10 8 13 13 6 7 5 4 6 5 6 5 5 5 10 6 7 6 6 6 6 7 8 8 7 6 7 9 7 5 3 6 6 9 3 3 8 8 5 4 6 8
16 16 15 14 12 11 10 8 12 13 12 12 14 15 4 3 4 1 9 4 4 5 5 5 9 4 8 7 4 5 6 7 6 8 11 8 9 7 6 5 7 4 3 1 7 7 5 7 5 2 1 2 2 6
16 16 14 13 12 10 9 10 15 14 15 21 6 3 4 6 17 14 6 6 7 5 6 9 8 5 4 7 7 6 6 8 6 9 10 7 9 8 11 7 8 10 9 7 8 8 11 8 5 6 5 1 6 7
16 15 14 13 12 11 10 16 17 20 16 2 4 2 2 15 7 4 4 5 6 7 7 7 9 7 5 6 3 4 5 4 7 3 8 6 6 9 11 6 6 7 8 8 7 4 4 6 4 9 6 7 4 1
16 15 14 13 12 11 18 17 21 10 4 5 3 5 5 5 4 6 6 6 6 6 6 7 7 8 2 3 5 2 6 4 1 5 11 4 6 8 9 8 5 2 6 7 6 1 1 2 2 3 3 0 1 3
15 15 13 14 12 16 21 20 22 7 5 3 3 6 6 6 4 8 10 6 5 5 5 6 8 5 4 5 5 3 5 4 8 7 5 5 4 4 7 11 9 8 6 4 3 3 5 3 0 2 5 3 1 4
13 12 13 12 17 20 18 20 15 6 3 2 5 4 6 6 7 7 7 6 4 3 9 6 4 5 3 6 5 4 6 6 11 2 5 3 3 3 5 5 8 10 9 9 8 7 8 7 7 6 6 4 5 5
12 13 14 17 19 17 19 14 6 1 1 5 4 4 8 7 5 4 3 3 4 1 3 5 3 4 6 4 3 1 5 3 6 4 6 5 4 5 4 6 7 6 6 8 8 8 6 3 1 3 4 3 2 2
15 15 7 20 18 17 16 9 3 1 2 4 7 7 6 8 7 6 7 4 3 5 2 2 5 3 4 4 4 5 5 5 2 3 7 5 2 3 5 6 5 3 3 4 4 3 3 4 3 2 3 2 3 4
9 4 20 22 19 16 8 1 2 1 4 4 3 4 3 2 6 2 4 6 2 7 4 3 4 4 3 3 4 2 2 3 2 3 4 5 4 6 5 6 4 3 5 7 6 5 1 3 5 5 1 4 5 5
6 16 23 25 16 7 2 2 3 5 5 6 2 5 4 2 4 5 3 3 4 6 8 2 5 3 2 3 6 3 6 5 2 5 4 4 5 7 8 5 5 1 3 6 11 6 4 5 4 2 5 2 4 5
15 17 20 13 6 3 3 0 3 4 6 3 5 6 3 3 3 1 2 2 1 3 3 1 2 2 5 4 5 9 8 6 6 5 7 5 5 5 5 5 5 5 3 6 9 8 2 3 3 4 5 5 6 7
21 19 12 7 5 3 6 5 3 6 2 3 2 4 0 5 4 2 3 1 3 4 2 3 2 4 4 8 6 6 6 5 5 5 3 2 4 5 6 4 1 2 2 5 5 13 2 3 6 8 2 7 6 9
10 3 4 2 3 3 2 4 2 3 2 2 4 4 3 5 4 2 2 1 2 3 1 5 5 10 7 6 6 7 6 5 4 4 4 3 4 5 3 3 5 3 2 4 8 3 6 5 6 6 7 7 7 9
4 6 4 5 2 2 1 2 2 2 3 4 4 3 3 5 4 3 2 4 2 1 4 3 8 7 5 6 6 5 4 5 2 2 1 3 4 4 3 3 6 5 5 5 6 2 3 4 5 7 8 9 10 4
10 7 4 3 1 3 1 4 3 2 3 5 3 3 2 2 1 2 4 1 4 1 5 5 5 3 5 2 3 3 2 3 1 3 3 2 3 1 5 7 4 4 3 2 4 5 4 2 6 3 8 11 7 5
4 2 2 1 3 3 4 4 1 3 3 3 3 3 2 3 0 4 3 1 5 7 5 5 5 6 6 6 6 2 4 3 3 5 1 2 2 4 7 2 5 7 7 7 7 5 6 2 10 7 8 8 5 5
2 5 2 3 1 4 5 6 5 5 4 3 2 2 3 2 3 1 2 4 8 6 6 5 5 5 6 4 4 6 3 2 6 4 7 9 6 5 2 5 2 7 7 6 6 7 6 3 6 8 9 6 9 13
4 2 2 2 1 4 5 5 5 4 5 2 3 3 4 6 8 5 4 3 3 4 3 3 1 2 4 4 6 3 4 5 5 3 4 5 7 6 5 6 7 8 8 9 10 11 11 9 11 14 13 15 14 13
2 4 2 1 1 2 2 4 3 2 5 6 4 5 4 0 4 4 3 3 3 2 3 5 5 6 6 5 3 4 3 5 5 3 5 7 7 8 8 7 8 8 10 9 11 12 13 14 12 10 7 6 8 9
3 4 5 6 3 2 4 5 5 5 4 4 3 4 2 4 4 5 3 5 1 1 3 4 5 6 5 4 3 6 5 6 1 1 3 3 3 7 8 8 7 5 6 7 9 9 11 11 11 12 12 11 11 11
1 2 3 3 5 5 4 5 4 4 4 3 2 1 0 1 3 3 3 3 4 5 6 7 8 8 6 3 5 4 3 7 7 5 9 6 8 7 8 8 8 8 8 8 7 7 9 9 8 9 12 10 10 11
3 3 2 4 6 5 6 6 4 3 2 2 1 2 1 2 3 5 3 6 4 6 5 7 7 4 1 2 4 3 6 9 9 10 9 8 8 8 9 9 9 9 8 9 10 10 12 11 3 7 10 10 10 10
2 2 3 4 5 4 3 3 4 6 3 2 1 1 2 2 2 7 8 7 5 5 5 5 7 8 8 8 8 9 8 9 10 12 11 9 9 10 9 9 8 8 8 9 9 9 11 10 10 10 11 11 12 10
1 2 3 4 4 2 1 1 3 4 6 6 7 7 4 5 7 5 6 6 5 7 6 7 7 7 9 7 7 7 9 9 9 10 13 11 10 12 12 10 9 8 8 8 7 9 10 10 9 10 10 11 12 12
5 8 9 6 6 7 7 5 4 5 3 3 5 3 7 6 7 4 4 5 6 7 7 6 6 6 8 8 7 5 9 8 11 9 10 10 10 11 9 9 9 8 8 8 8 7 9 10 10 10 11 11 12 13
Wind_Direction
263 263 269 273 267 271 288 290 284 296 220 218 224 228 229 226 209 241 267 231 279 283 285 288 273 272 263 237 271 51 271 194 259 249 263 269 277 47 282 279 271 298 284 348 328 300 297 350 324 342 38 49 44 19
257 262 264 268 266 261 278 285 290 303 216 208 217 223 225 224 203 226 266 197 263 265 294 316 290 292 269 278 289 287 304 298 332 294 346 317 296 336 322 308 343 266 342 331 326 300 341 350 352 35 31 72 61 354
253 258 258 258 264 257 268 281 282 295 219 203 214 222 223 218 198 218 272 4 241 259 266 242 242 243 229 242 254 263 259 292 271 302 304 309 314 294 251 266 238 344 317 289 297 301 338 35 324 313 20 325 127 270
247 251 255 256 256 256 257 271 282 296 218 199 202 215 209 214 184 214 232 260 260 294 279 91 97 221 206 221 224 238 255 283 287 272 273 280 288 185 286 280 281 145 262 292 324 347 339 64 2 5 337 170 50 36
242 245 250 253 253 253 251 260 272 294 206 194 198 204 205 192 182 215 271 276 281 291 320 327 316 257 256 267 239 229 231 234 255 233 230 249 266 288 277 267 289 74 9 277 353 345 23 16 11 109 325 291 93 68
237 238 239 246 249 249 247 256 255 282 192 188 195 196 193 173 150 157 234 193 220 211 286 271 113 198 183 233 231 205 208 215 237 255 253 253 269 278 275 282 149 190 209 1 358 4 93 113 339 275 246 95 52 47
234 234 235 239 244 248 238 248 256 232 177 185 186 178 163 152 174 248 16 11 7 175 247 259 231 153 194 184 182 192 208 218 234 234 246 264 276 205 264 270 285 285 284 353 2 209 199 166 216 220 123 190 85 73
231 233 232 237 239 245 230 228 252 182 172 176 173 173 165 172 277 242 211 222 267 228 260 269 262 183 182 194 177 207 205 211 207 248 251 248 248 215 258 275 314 302 267 259 204 214 95 152 198 223 184 75 81 68
225 228 226 231 232 233 221 233 187 161 167 153 128 124 115 207 195 234 109 155 250 290 290 244 272 121 165 242 135 177 214 209 223 217 237 241 234 228 216 313 326 341 351 274 178 188 226 239 291 112 141 250 69 99
222 225 221 225 226 222 208 196 166 162 140 134 136 193 186 157 122 147 172 189 200 221 228 264 281 261 213 179 198 203 184 239 200 211 226 220 243 75 23 340 277 267 289 275 206 190 223 245 215 188 238 322 83 32
218 216 220 215 214 197 194 167 154 139 141 171 178 168 50 165 180 228 187 236 184 220 207 227 253 252 166 265 246 203 350 304 259 156 225 209 97 16 353 314 295 273 221 247 255 182 303 313 308 179 157 171 112 47
210 211 210 203 196 198 172 166 155 152 183 170 122 121 171 215 206 216 200 217 224 231 154 210 192 215 173 284 267 243 220 303 246 56 274 127 60 322 320 339 1 111 154 196 267 316 285 299 21 100 251 191 271 40
199 197 197 193 199 180 168 165 170 130 114 67 202 177 192 172 204 212 194 201 210 174 165 201 179 203 180 235 250 270 250 264 0 235 64 54 25 13 42 7 22 58 59 88 116 96 55 65 133 98 116 97 281 296
183 182 179 189 172 163 160 162 163 175 91 174 189 201 201 202 214 212 217 185 130 166 171 197 158 208 194 182 243 233 251 129 201 44 42 123 107 29 25 77 57 19 24 64 56 54 54 53 55 36 33 8 323 344
174 163 163 158 155 148 144 131 161 303 127 228 210 230 205 231 252 171 108 61 140 274 174 180 241 235 170 221 228 296 261 254 29 84 94 100 53 322 26 20 8 34 52 28 13 17 21 33 26 93 69 30 30 331
150 132 139 144 133 124 122 140 186 57 264 239 218 232 223 221 161 164 176 165 151 191 199 217 233 206 192 168 232 246 335 38 68 36 85 119 103 2 6 332 345 296 322 333 333 22 6 22 32 34 312 326 355 333
142 112 141 135 135 132 146 134 71 261 271 249 237 202 6 55 52 85 137 106 199 239 220 215 208 163 244 221 101 159 85 158 56 318 25 51 346 304 309 309 318 316 321 302 240 242 154 229 246 259 305 344 315 291
93 126 131 134 135 132 107 65 193 225 241 250 344 158 129 235 158 135 150 167 236 142 237 57 262 225 250 34 40 109 115 167 86 24 3 360 323 303 294 275 285 285 346 324 307 262 218 270 280 281 265 336 299 319
132 134 134 116 130 108 94 7 256 250 221 154 162 141 154 128 96 168 205 165 259 314 207 93 85 17 339 59 32 20 12 11 359 353 37 23 342 343 286 254 271 294 271 256 273 284 263 243 288 271 278 273 295 307
112 126 121 100 359 229 149 163 216 252 138 80 123 128 2 121 226 208 186 225 239 234 212 194 153 85 79 42 16 358 354 354 343 8 360 13 29 353 359 5 315 2 340 320 353 292 360 222 179 244 306 316 314 306
95 112 103 347 240 251 274 180 150 359 143 171 103 162 189 221 222 133 259 221 238 309 318 119 177 80 41 15 1 9 34 1 353 357 341 29 12 349 345 9 319 269 192 192 260 251 318 22 0 347 339 3 350 351
95 149 197 207 270 197 126 359 17 138 233 134 186 240 175 194 191 209 34 248 258 58 8 9 24 14 349 52 16 353 18 312 323 46 120 122 22 344 348 333 341 320 312 346 10 13 354 341 13 331 332 346 352 312
166 205 205 200 139 93 179 240 173 234 171 165 165 191 196 218 176 85 253 226 127 95 7 23 28 310 313 310 293 275 332 304 305 37 64 44 109 204 265 267 284 327 355 96 234 305 354 309 324 283 314 334 329 344
204 27 17 117 130 138 188 153 186 142 168 187 183 192 124 40 155 227 260 70 48 45 10 358 291 270 195 205 265 62 45 356 36 78 74 338 220 280 274 303 355 40 13 23 19 356 336 141 245 343 352 306 344 317
44 341 118 300 202 170 147 154 160 194 164 197 165 118 50 209 262 268 1 38 9 0 329 300 283 299 335 23 47 63 41 196 118 162 245 217 183 205 295 93 91 340 14 7 357 340 327 323 342 333 324 322 330 327
64 28 345 103 163 130 141 147 173 154 129 139 114 55 33 37 17 352 323 326 322 298 281 303 343 106 89 97 103 47 334 109 89 25 1 52 34 29 39 21 8 30 352 3 355 343 336 341 7 356 346 18 17 359
76 41 71 79 242 179 126 96 94 96 59 26 24 47 47 56 234 240 241 223 259 342 7 40 51 66 62 50 4 89 73 111 117 235 60 56 52 25 12 27 30 6 334 12 358 352 355 343 348 353 15 354 342 356
18 334 152 149 142 329 95 68 54 49 40 21 51 56 8 335 338 349 335 340 247 96 67 79 68 63 57 55 82 51 359 17 300 93 139 62 59 61 17 12 40 296 345 31 356 11 3 344 352 346 347 350 358 358
144 82 34 155 144 80 49 30 67 57 26 47 86 126 276 336 263 290 307 346 29 81 83 61 44 63 58 21 58 71 48 359 28 17 353 23 29 22 18 11 7 5 6 8 82 45 21 342 347 3 357 1 16 346
69 8 334 40 51 59 46 29 72 80 56 72 90 151 106 5 338 324 93 123 109 100 70 76 105 100 188 51 84 105 56 41 21 8 10 18 22 22 8 5 5 4 5 360 358 11 16 340 41 349 18 6 22 357
113 95 63 34 64 52 58 55 72 80 47 54 27 127 187 202 90 38 24 49 32 61 82 82 63 35 33 37 21 5 30 46 35 34 6 1 27 18 1 357 4 1 359 356 7 22 3 354 15 8 23 16 17 7
111 99 112 106 97 107 268 166 188 156 174 194 181 185 172 108 83 59 5 357 39 73 37 26 42 49 19 14 26 68 38 40 24 25 18 18 15 4 345 354 357 360 354 0 13 32 14 8 22 15 13 16 6 4
166 144 128 141 155 187 190 170 122 128 153 121 87 61 69 75 64 64 64 51 28 9 9 27 16 47 51 15 19 90 104 90 97 86 72 57 34 1 354 4 348 354 358 17 15 24 24 14 18 13 11 6 3 357